#timestamp,LO_Frequency,Hit 
1500656415.8,286046994.1,N
1500656435.6,286046994.4,N
1500656455.5,286046992.1,N
1500656475.3,286046992.1,N
1500656495.2,286046992.2,N
1500656515.9,286046993.1,N
1500656535.7,286046992.8,N
1500656555.6,286046990.1,N
1500656575.4,286046990.1,N
1500656595.2,286046992.7,N
1500656615.1,286046993.0,N
1500656616.0,286046993.0,N
1500656635.8,286046992.8,N
1500656655.7,286046992.7,N
1500656675.5,286046992.5,N
1500656695.3,286046992.7,N
1500656715.2,286046992.3,N
1500656735.0,286046994.7,N
1500656735.9,286046994.7,N
1500656755.7,286046986.3,N
1500656775.6,286046992.5,N
1500656795.4,286046990.1,N
1500656815.3,286046993.2,N
1500656835.1,286046990.3,N
1500656836.0,286046990.3,N
1500656855.8,286046990.5,N
1500656875.7,286046991.1,N
1500656895.5,286046988.5,N
1500656915.4,286046991.0,N
1500656935.2,286046991.0,N
1500656955.0,286046990.5,N
1500656955.9,286046990.5,N
1500656975.8,286046993.2,N
1500656995.6,286046990.1,N
1500657015.5,286046990.4,N
1500657035.3,286046990.9,N
1500657055.1,286046990.9,N
1500657075.9,286046991.2,N
1500657095.7,286046990.2,N
1500657115.5,286046986.3,N
1500657135.4,286046991.7,N
1500657155.2,286046992.0,N
1500657175.1,286046992.6,N
1500657176.0,286046992.6,N
1500657195.8,286046993.0,N
1500657215.6,286046994.8,N
1500657235.5,286046992.3,N
1500657255.3,286046993.0,N
1500657275.2,286046992.7,N
1500657295.9,286046994.2,N
1500657315.7,286046994.0,N
1500657335.6,286046993.6,N
1500657355.4,286046993.6,N
1500657375.2,286046993.8,N
1500657395.1,286046995.6,N
1500657396.0,286046995.6,N
1500657415.8,286046993.5,N
1500657435.7,286046994.1,N
1500657455.5,286046994.7,N
1500657475.3,286046993.5,N
1500657495.2,286046994.2,N
1500657515.0,286046994.7,N
1500657515.9,286046994.7,N
1500657535.7,286046994.6,N
1500657555.6,286046991.7,N
1500657575.4,286046994.1,N
1500657595.3,286046994.7,N
1500657615.1,286046994.6,N
1500657635.8,286046993.7,N
1500657655.7,286046993.4,N
1500657675.5,286046993.9,N
1500657695.4,286046994.6,N
1500657715.2,286046993.6,N
1500657735.0,286046996.0,N
1500657735.9,286046996.0,N
1500657755.8,286046996.2,N
1500657775.6,286046996.3,N
1500657795.4,286046996.3,N
1500657815.3,286046996.2,N
1500657835.1,286046996.0,N
1500657855.9,286046995.7,N
1500657875.7,286046995.7,N
1500657895.5,286046995.1,N
1500657915.4,286046995.8,N
1500657935.2,286046995.1,N
1500657955.0,286046997.7,N
1500657956.0,286046997.7,N
1500657975.8,286046997.6,N
1500657995.6,286046997.9,N
1500658015.5,286046997.9,N
1500658035.3,286046995.1,N
1500658055.1,286046997.8,N
1500658075.9,286046997.9,N
1500658095.7,286046995.1,N
1500658115.6,286046996.2,N
1500658135.4,286046996.2,N
1500658155.2,286046997.7,N
1500658175.1,286046997.5,N
1500658176.0,286046997.5,N
1500658195.8,286046997.8,N
1500658215.6,286046997.2,N
1500658235.5,286046996.7,N
1500658255.3,286046997.8,N
1500658275.2,286046999.6,N
1500658295.9,286046999.2,N
1500658315.7,286046999.3,N
1500658335.6,286046999.2,N
1500658355.4,286046999.2,N
1500658375.2,286046999.2,N
1500658395.1,286046999.1,N
1500658396.0,286046999.1,N
1500658415.8,286046999.5,N
1500658435.7,286046997.3,N
1500658455.5,286046997.0,N
1500658475.3,286046999.0,N
1500658495.2,286046999.1,N
1500658515.0,286046996.6,N
1500658515.9,286046996.6,N
1500658535.8,286046997.1,N
1500658555.6,286046996.5,N
1500658575.4,286046999.4,N
1500658595.3,286046999.1,N
1500658615.1,286046998.9,N
1500658635.8,286046999.3,N
1500658655.7,286046999.0,N
1500658675.5,286046999.2,N
1500658695.4,286046996.9,N
1500658715.2,286046998.8,N
1500658735.0,286046998.7,N
1500658735.9,286046998.7,N
1500658755.8,286046999.3,N
1500658775.6,286046998.5,N
1500658795.5,286046998.7,N
1500658815.3,286047000.8,N
1500658835.1,286047000.7,N
1500658855.9,286047000.8,N
1500658875.7,286046998.5,N
1500658895.5,286046998.1,N
1500658915.4,286047001.0,N
1500658935.2,286047000.7,N
1500658955.1,286047000.5,N
1500658956.0,286047000.5,N
1500658975.8,286047001.0,N
1500658995.6,286046998.3,N
1500659015.5,286047000.9,N
1500659035.3,286046998.2,N
1500659055.1,286047001.2,N
1500659075.9,286047000.3,N
1500659095.7,286047000.8,N
1500659115.6,286047000.8,N
1500659135.4,286047000.9,N
1500659155.2,286047001.0,N
1500659175.1,286047000.7,N
1500659176.0,286047000.7,N
1500659195.8,286047001.1,N
1500659215.7,286047000.0,N
1500659235.5,286047000.2,N
1500659255.3,286047000.0,N
1500659275.2,286047000.2,N
1500659295.0,286047000.6,N
1500659295.9,286047000.6,N
1500659315.7,286047001.1,N
1500659335.6,286046998.6,N
1500659355.4,286047000.6,N
1500659375.3,286047000.1,N
1500659395.1,286047002.4,N
1500659396.0,286047002.4,N
1500659415.8,286047000.1,N
1500659435.7,286047002.4,N
1500659455.5,286047000.3,N
1500659475.4,286047000.9,N
1500659495.2,286047000.2,N
1500659515.0,286046999.7,N
1500659515.9,286046999.7,N
1500659535.8,286047002.6,N
1500659555.6,286046999.7,N
1500659575.4,286047002.8,N
1500659595.3,286047002.8,N
1500659615.1,286046999.7,N
1500659635.9,286047002.4,N
1500659655.7,286047002.7,N
1500659675.5,286047002.8,N
1500659695.4,286046999.8,N
1500659715.2,286047002.7,N
1500659735.0,286047002.6,N
1500659735.9,286047002.6,N
1500659755.8,286047002.6,N
1500659775.6,286047002.8,N
1500659795.5,286047002.0,N
1500659815.3,286047002.6,N
1500659835.1,286047002.1,N
1500659855.9,286047002.2,N
1500659875.7,286047002.0,N
1500659895.6,286047001.5,N
1500659915.4,286047004.4,N
1500659935.2,286047001.6,N
1500659955.1,286047001.7,N
1500659956.0,286047001.7,N
1500659975.8,286047003.9,N
1500659995.7,286047001.4,N
